This is the latest recevied weather packets stored in our database for station/object W6MAF. If no packets are shown the sender has not sent any weather packets the latest 10 day(s).
| Time | Temp. | Humidity | Pressure | Rain* | Wind** | Luminosity | Snow |
|---|---|---|---|---|---|---|---|
| 1777926990 | 12.22° C | 39% | - | 0 mm | 9.39 m/s, 167° | - | - |
| 1777926693 | 11.67° C | 39% | - | 0 mm | 7.6 m/s, 166° | - | - |
| 1777926459 | 11.67° C | 41% | - | 0 mm | 8.49 m/s, 176° | - | - |
| 1777926395 | 11.67° C | 41% | - | 0 mm | 8.49 m/s, 176° | - | - |
| 1777926097 | 11.67° C | 41% | - | 0 mm | 8.94 m/s, 193° | - | - |
| 1777925800 | 11.67° C | 42% | - | 0 mm | 8.05 m/s, 198° | - | - |
| 1777925540 | 11.67° C | 42% | - | 0 mm | 9.39 m/s, 203° | - | - |
| 1777925502 | 11.67° C | 42% | - | 0 mm | 9.39 m/s, 203° | - | - |
| 1777925202 | 11.67° C | 42% | - | 0 mm | 9.39 m/s, 160° | - | - |
| 1777924309 | 11.67° C | 42% | - | 0 mm | 10.73 m/s, 190° | - | - |
| 1777924011 | 11.67° C | 41% | - | 0 mm | 9.39 m/s, 174° | - | - |
| 1777923788 | 11.67° C | 42% | - | 0 mm | 8.49 m/s, 205° | - | - |
| 1777923713 | 11.67° C | 42% | - | 0 mm | 8.49 m/s, 205° | - | - |
| 1777923413 | 11.67° C | 42% | - | 0 mm | 8.94 m/s, 198° | - | - |
| 1777923220 | 11.67° C | 44% | - | 0 mm | 8.94 m/s, 187° | - | - |
| 1777923115 | 11.67° C | 44% | - | 0 mm | 8.94 m/s, 187° | - | - |
| 1777922856 | 11.67° C | 44% | - | 0 mm | 7.15 m/s, 181° | - | - |
| 1777922817 | 11.67° C | 44% | - | 0 mm | 7.15 m/s, 181° | - | - |
| 1777922519 | 11.67° C | 43% | - | 0 mm | 10.73 m/s, 159° | - | - |
| 1777922222 | 11.67° C | 43% | - | 0 mm | 7.15 m/s, 195° | - | - |
| 1777921924 | 11.11° C | 45% | - | 0 mm | 9.39 m/s, 195° | - | - |
| 1777921325 | 11.11° C | 48% | - | 0 mm | 6.71 m/s, 198° | - | - |
| 1777921028 | 10.56° C | 49% | - | 0 mm | 8.05 m/s, 194° | - | - |
| 1777920730 | 10.56° C | 49% | - | 0 mm | 9.83 m/s, 174° | - | - |
| 1777920481 | 11.11° C | 48% | - | 0 mm | 7.6 m/s, 187° | - | - |
* Rain latest hour (hover to see other rain measurements)
** Current wind speed in m/s (hover to see current wind gust speed)